This is the latest recevied weather packets stored in our database for station/object NK7E-2. If no packets are shown the sender has not sent any weather packets the latest 10 day(s).
| Time | Temp. | Humidity | Pressure | Rain* | Wind** | Luminosity | Snow |
|---|---|---|---|---|---|---|---|
| 1788084017 | 25.56° C | 56% | 1029.2 hPa | 0 mm | - | - | - |
| 1788083417 | 25.56° C | 56% | 1029.2 hPa | 0 mm | - | - | - |
| 1788082817 | 25.56° C | 56% | 1029.2 hPa | 0 mm | - | - | - |
| 1788082217 | 25° C | 57% | 1028.9 hPa | 0 mm | - | - | - |
| 1788081617 | 25° C | 60% | 1028.9 hPa | 0 mm | - | - | - |
| 1788081017 | 25° C | 60% | 1029 hPa | 0 mm | - | - | - |
| 1788080417 | 25° C | 61% | 1029.2 hPa | 0 mm | - | - | - |
| 1788079817 | 25° C | 62% | 1028.5 hPa | 0 mm | - | - | - |
| 1788079217 | 24.44° C | 63% | 1028.7 hPa | 0 mm | - | - | - |
| 1788078617 | 24.44° C | 64% | 1028.4 hPa | 0 mm | - | - | - |
| 1788078017 | 24.44° C | 64% | 1028.3 hPa | 0 mm | - | - | - |
| 1788077417 | 24.44° C | 66% | 1028.3 hPa | 0 mm | - | - | - |
| 1788076817 | 23.89° C | 67% | 1028.2 hPa | 0 mm | - | - | - |
| 1788076217 | 23.89° C | 68% | 1028.5 hPa | 0 mm | - | - | - |
| 1788075617 | 23.89° C | 67% | 1028.9 hPa | 0 mm | - | - | - |
| 1788075017 | 24.44° C | 67% | 1029.2 hPa | 0 mm | - | - | - |
| 1788074417 | 24.44° C | 67% | 1029.3 hPa | 0 mm | - | - | - |
| 1788073819 | 24.44° C | 64% | 1029.1 hPa | 0 mm | - | - | - |
| 1788073217 | 26.67° C | 54% | 1029.3 hPa | 0 mm | - | - | - |
| 1788072617 | 28.33° C | 42% | 1029.2 hPa | 0 mm | - | - | - |
| 1788072017 | 28.33° C | 42% | 1029 hPa | 0 mm | - | - | - |
| 1788071417 | 28.33° C | 42% | 1029.1 hPa | 0 mm | - | - | - |
| 1788070817 | 28.89° C | 42% | 1029.5 hPa | 0 mm | - | - | - |
| 1788070217 | 28.89° C | 42% | 1029.5 hPa | 0 mm | - | - | - |
| 1788069617 | 28.89° C | 43% | 1029.6 hPa | 0 mm | - | - | - |
* Rain latest hour (hover to see other rain measurements)
** Current wind speed in m/s (hover to see current wind gust speed)